User: anonymous   Login
Location: Sungai Bunut
(2.6333°N, 113.7333°E)
Time: 09:06:33
(UTC+00:00)
Language:

BREEZE-M R/B - Orbit

View from above orbital plane
View from above orbital plane
View from above satellite
View from above satellite

Ground track
Ground track

The orbit data is extracted from the following two-line orbital elements,

1 38746U 12044C   22024.52556540  .00005500  00000-0  33063-3 0  9999
2 38746  49.6844 221.4215 2376041 232.3196 103.7752 10.56770733348640
Epoch (UTC): 24 January 2022 12:36:48
Eccentricity: 0.2376041
inclination: 49.6844°
perigee height: 309 km
apogee height: 4477 km
right ascension of ascending node: 221.4215°
argument of perigee: 232.3196°
revolutions per day: 10.56770733
mean anomaly at epoch: 103.7752°
orbit number at epoch: 34864

The dashed part of the orbit path shows where the satellite is in the earth's shadow,  

DLR